Pierre, SD

1:26 PM CST on November 13, 2019 (GMT -0600)
Pierre Regional

Weather History for KPIR - June, 2019

Change the Weather History Date:

Thursday, June 6, 2019

  Actual Average Record
Temperature  
Mean Temperature 71 °F 64 °F  
Max Temperature 87 °F 76 °F 103 °F (1950)
Min Temperature 54 °F 53 °F 35 °F (1944)
Degree Days  
Heating Degree Days 0    
Month to date heating degree days 12  
Since 1 June heating degree days 12  
Since 1 July heating degree days 8138  
Cooling Degree Days 6    
Month to date cooling degree days 26  
Year to date cooling degree days 37  
Since 1 June cooling degree days 26  
Growing Degree Days 21 (Base 50)    
Moisture  
Dew Point 58 °F    
Average Humidity 65    
Maximum Humidity 93    
Minimum Humidity 37    
Precipitation  
Precipitation 0.00 in 0.13 in 2.02 in (1963)
Month to date precipitation T 0.79  
Year to date precipitation 13.85 7.99  
Snow  
Snow 0.00 in 0.00 in 0.00 in ()
Month to date snowfall 0.0 0.0  
Since 1 July snowfall 66.3 31.9  
Snow Depth 0.00 in    
Sea Level Pressure  
Sea Level Pressure 29.80 in    
Wind  
Wind Speed 9 mph (South)    
Max Wind Speed 17 mph    
Max Gust Speed 23 mph    
Visibility 10 miles    
Events      
T = Trace of Precipitation, MM = Missing Value Source: NWS Daily Summary

Daily Weather History Graph

Daily Weather History Graph

Search for Another Location

Airport or City:

Astronomy

Jun. 06, 2019 Rise Set
Actual Time 5:57 AM CDT 9:22 PM CDT
Civil Twilight 5:21 AM CDT 9:58 PM CDT
Nautical Twilight 4:34 AM CDT 10:45 PM CDT
Astronomical Twilight 3:34 AM CDT 11:45 PM CDT
Moon 9:09 AM CDT (6/6) No Moon Set
Length of Visible Light 16h 36m
Length of Day
15h 24m
Waxing Crescent, 14% of the Moon is Illuminated
Jun 6
Waxing Crescent
Jun 10
First Quarter
Jun 17
Full
Jun 25
Last Quarter
Jul 2
New

Hourly Weather History & Observations

Time (CDT) Temp. Heat Index Dew Point Humidity Pressure Visibility Wind Dir Wind Speed Gust Speed Precip Events Conditions
12:53 AM 66.9 °F - 54.0 °F 63% 29.84 in 10.0 mi SSW 4.6 mph - N/A   Clear
1:53 AM 69.1 °F - 54.0 °F 58% 29.84 in 10.0 mi SSW 3.5 mph - N/A   Clear
2:53 AM 60.1 °F - 55.0 °F 83% 29.84 in 10.0 mi Calm Calm - N/A   Clear
3:53 AM 62.1 °F - 55.0 °F 78% 29.84 in 10.0 mi SW 3.5 mph - N/A   Partly Cloudy
4:53 AM 55.9 °F - 53.1 °F 90% 29.83 in 10.0 mi Calm Calm - N/A   Clear
5:53 AM 55.0 °F - 52.0 °F 89% 29.84 in 10.0 mi East 3.5 mph - N/A   Clear
6:53 AM 57.9 °F - 55.9 °F 93% 29.84 in 10.0 mi SSE 3.5 mph - N/A   Partly Cloudy
7:53 AM 66.0 °F - 57.0 °F 73% 29.84 in 10.0 mi South 5.8 mph - N/A   Clear
8:53 AM 71.1 °F - 59.0 °F 66% 29.84 in 10.0 mi South 5.8 mph - N/A   Clear
9:53 AM 75.9 °F - 60.1 °F 58% 29.84 in 10.0 mi South 8.1 mph - N/A   Clear
10:53 AM 80.1 °F 80.4 °F 57.0 °F 45% 29.83 in 10.0 mi SSW 10.4 mph - N/A   Clear
11:53 AM 82.0 °F 81.7 °F 57.0 °F 42% 29.83 in 10.0 mi South 15.0 mph - N/A   Clear
12:53 PM 84.0 °F 83.5 °F 57.9 °F 41% 29.82 in 10.0 mi South 15.0 mph 19.6 mph N/A   Clear
1:53 PM 84.9 °F 84.4 °F 59.0 °F 41% 29.80 in 10.0 mi South 12.7 mph - N/A   Clear
2:53 PM 86.0 °F 85.0 °F 57.9 °F 38% 29.79 in 10.0 mi South 16.1 mph - N/A   Clear
3:53 PM 86.0 °F 85.0 °F 57.9 °F 38% 29.78 in 10.0 mi South 11.5 mph 21.9 mph N/A   Clear
4:53 PM 87.1 °F 86.5 °F 59.0 °F 39% 29.77 in 10.0 mi South 11.5 mph - N/A   Clear
5:53 PM 86.0 °F 85.4 °F 59.0 °F 40% 29.77 in 10.0 mi SSE 10.4 mph - N/A   Clear
6:53 PM 84.9 °F 85.0 °F 61.0 °F 44% 29.76 in 10.0 mi SSE 10.4 mph - N/A   Clear
7:53 PM 81.0 °F 81.9 °F 62.1 °F 52% 29.75 in 10.0 mi SSE 10.4 mph - N/A   Clear
8:53 PM 73.9 °F - 63.0 °F 68% 29.75 in 10.0 mi SE 8.1 mph - N/A   Clear
9:53 PM 72.0 °F - 61.0 °F 68% 29.75 in 10.0 mi SE 9.2 mph - N/A   Clear
10:53 PM 72.0 °F - 60.1 °F 66% 29.75 in 10.0 mi SE 11.5 mph - N/A   Clear
11:53 PM 71.1 °F - 59.0 °F 66% 29.74 in 10.0 mi SE 9.2 mph - N/A   Clear